Weather History for Clinton, OK

Change the Weather History Date:

Thursday, May 30, 2013

  Actual Average (KCSM) Record (KCSM)
Temperature  
Mean Temperature 79 °F -  
Max Temperature 89 °F 83 °F 104 °F (2003)
Min Temperature 69 °F 59 °F 55 °F (1997)
Cooling Degree Days 14    
Growing Degree Days 29 (Base 50)    
Moisture  
Dew Point 56 °F    
Average Humidity 56    
Maximum Humidity 83    
Minimum Humidity 12    
Precipitation  
Precipitation 0.00 in - - ()
Sea Level Pressure  
Sea Level Pressure 29.64 in    
Wind  
Wind Speed 17 mph (SSW)    
Max Wind Speed 30 mph    
Max Gust Speed 39 mph    
Visibility 10 miles    
Events      
Averages and records for this station are not official NWS values.
T = Trace of Precipitation, MM = Missing Value Source: NWS Daily Summary

Daily Weather History Graph

Daily Weather History Graph

Search for Another Location

Airport:

Trip Planner

Search our weather history database for the weather conditions in past years. The results will help you decide how hot, cold, wet, or windy it might be!

Date:

Astronomy

May. 30, 2013 Rise Set
Actual Time 6:22 AM CDT 8:44 PM CDT
Civil Twilight 5:52 AM CDT 9:14 PM CDT
Nautical Twilight 5:16 AM CDT 9:50 PM CDT
Astronomical Twilight 4:37 AM CDT 10:30 PM CDT
Moon 12:53 AM CDT (5/30) 12:24 PM CDT (5/30)
Length of Visible Light 15h 21m
Length of Day
14h 22m
Waning Gibbous, 62% of the Moon is Illuminated
May 30
Waning Gibbous
May 31
Last Quarter
Jun 8
New
Jun 16
First Quarter
Jun 23
Full

Hourly Weather History & Observations

Time (CDT) Temp. Heat Index Dew Point Humidity Pressure Visibility Wind Dir Wind Speed Gust Speed Precip Events Conditions
12:15 AM 69.8 °F - 64.4 °F 83% 29.64 in 10.0 mi South 10.4 mph 16.1 mph N/A   Overcast
12:35 AM 69.8 °F - 64.4 °F 83% 29.64 in 10.0 mi SSE 24.2 mph 28.8 mph N/A   Overcast
12:55 AM 69.8 °F - 64.4 °F 83% 29.63 in 10.0 mi SSE 25.3 mph 31.1 mph N/A   Overcast
1:15 AM 69.8 °F - 64.4 °F 83% 29.62 in 10.0 mi SSE 20.7 mph 34.5 mph N/A   Overcast
1:35 AM 69.8 °F - 64.4 °F 83% 29.61 in 10.0 mi SSE 18.4 mph 26.5 mph N/A   Overcast
1:55 AM 69.8 °F - 64.4 °F 83% 29.60 in 10.0 mi SSE 20.7 mph 28.8 mph N/A   Overcast
2:15 AM 71.6 °F - 66.2 °F 83% 29.60 in 10.0 mi SSE 25.3 mph 32.2 mph N/A   Overcast
2:35 AM 71.6 °F - 64.4 °F 78% 29.59 in 10.0 mi South 27.6 mph 33.4 mph N/A   Overcast
2:55 AM 71.6 °F - 64.4 °F 78% 29.58 in 10.0 mi South 29.9 mph 39.1 mph N/A   Mostly Cloudy
3:15 AM 71.6 °F - 64.4 °F 78% 29.57 in 10.0 mi South 24.2 mph 35.7 mph N/A   Scattered Clouds
3:35 AM 71.6 °F - 64.4 °F 78% 29.57 in 10.0 mi South 25.3 mph 32.2 mph N/A   Scattered Clouds
3:55 AM 71.6 °F - 64.4 °F 78% 29.57 in 10.0 mi South 26.5 mph 33.4 mph N/A   Mostly Cloudy
4:15 AM 71.6 °F - 64.4 °F 78% 29.58 in 10.0 mi South 20.7 mph 33.4 mph N/A   Overcast
4:35 AM 71.6 °F - 64.4 °F 78% 29.58 in 10.0 mi South 21.9 mph 27.6 mph N/A   Mostly Cloudy
4:55 AM 71.6 °F - 64.4 °F 78% 29.57 in 10.0 mi South 23.0 mph 32.2 mph N/A   Mostly Cloudy
5:15 AM 71.6 °F - 64.4 °F 78% 29.57 in 10.0 mi South 23.0 mph 29.9 mph N/A   Mostly Cloudy
5:35 AM 71.6 °F - 64.4 °F 78% 29.57 in 10.0 mi South 25.3 mph 32.2 mph N/A   Scattered Clouds
5:55 AM 71.6 °F - 64.4 °F 78% 29.59 in 10.0 mi South 17.3 mph 31.1 mph N/A   Scattered Clouds
6:15 AM 71.6 °F - 64.4 °F 78% 29.59 in 10.0 mi South 23.0 mph 31.1 mph N/A   Mostly Cloudy
6:35 AM 71.6 °F - 64.4 °F 78% 29.60 in 10.0 mi South 19.6 mph 26.5 mph N/A   Scattered Clouds
6:55 AM 71.6 °F - 64.4 °F 78% 29.62 in 10.0 mi South 17.3 mph 27.6 mph N/A   Scattered Clouds
7:15 AM 71.6 °F - 64.4 °F 78% 29.63 in 10.0 mi South 20.7 mph 28.8 mph N/A   Clear
7:35 AM 73.4 °F - 64.4 °F 73% 29.63 in 10.0 mi SSW 24.2 mph 33.4 mph N/A   Clear
7:55 AM 73.4 °F - 64.4 °F 73% 29.64 in 10.0 mi South 25.3 mph 35.7 mph N/A   Scattered Clouds
8:15 AM 73.4 °F - 64.4 °F 73% 29.66 in 10.0 mi South 20.7 mph 28.8 mph N/A   Mostly Cloudy
8:35 AM 73.4 °F - 64.4 °F 73% 29.68 in 10.0 mi SSW 17.3 mph 23.0 mph N/A   Mostly Cloudy
8:55 AM 73.4 °F - 64.4 °F 73% 29.67 in 10.0 mi SSW 13.8 mph 24.2 mph N/A   Scattered Clouds
9:15 AM 69.8 °F - 55.4 °F 60% 29.70 in 10.0 mi West 10.4 mph 26.5 mph N/A   Mostly Cloudy
9:35 AM 71.6 °F - 57.2 °F 60% 29.70 in 10.0 mi WSW 8.1 mph - N/A   Scattered Clouds
9:55 AM 75.2 °F - 57.2 °F 53% 29.70 in 10.0 mi WSW 9.2 mph - N/A   Scattered Clouds
10:15 AM 75.2 °F - 57.2 °F 53% 29.70 in 10.0 mi SW 10.4 mph - N/A   Clear
10:35 AM 78.8 °F - 55.4 °F 44% 29.70 in 10.0 mi SW 12.7 mph 16.1 mph N/A   Clear
10:55 AM 78.8 °F - 53.6 °F 42% 29.71 in 10.0 mi WSW 11.5 mph - N/A   Clear
11:15 AM 80.6 °F 80.3 °F 53.6 °F 39% 29.70 in 10.0 mi SW 9.2 mph 18.4 mph N/A   Clear
11:35 AM 78.8 °F - 59.0 °F 51% 29.71 in 10.0 mi West 10.4 mph - N/A   Clear
11:55 AM 78.8 °F - 59.0 °F 51% 29.71 in 10.0 mi West 9.2 mph - N/A   Clear
12:15 PM 80.6 °F 81.1 °F 59.0 °F 48% 29.71 in 10.0 mi West 8.1 mph - N/A   Clear
12:35 PM 80.6 °F 81.1 °F 59.0 °F 48% 29.71 in 10.0 mi West 8.1 mph - N/A   Clear
12:55 PM 80.6 °F 81.1 °F 59.0 °F 48% 29.71 in 10.0 mi WNW 8.1 mph - N/A   Clear
1:15 PM 80.6 °F 81.1 °F 59.0 °F 48% 29.70 in 10.0 mi West 5.8 mph - N/A   Clear
1:35 PM 82.4 °F - 51.8 °F 35% 29.69 in 10.0 mi West 8.1 mph - N/A   Clear
1:55 PM 82.4 °F - 46.4 °F 28% 29.68 in 10.0 mi Calm Calm - N/A   Clear
2:15 PM 84.2 °F - 44.6 °F 25% 29.68 in 10.0 mi West 4.6 mph - N/A   Clear
2:35 PM 86.0 °F - 42.8 °F 22% 29.68 in 10.0 mi SW 6.9 mph - N/A   Clear
2:55 PM 86.0 °F - 42.8 °F 22% 29.67 in 10.0 mi WSW 9.2 mph - N/A   Clear
3:15 PM 87.8 °F - 37.4 °F 17% 29.66 in 10.0 mi SSW 15.0 mph - N/A   Clear
3:35 PM 87.8 °F - 35.6 °F 16% 29.66 in 10.0 mi WSW 15.0 mph - N/A   Clear
3:55 PM 87.8 °F - 32.0 °F 14% 29.66 in 10.0 mi WSW 12.7 mph 17.3 mph N/A   Clear
4:15 PM 89.6 °F - 32.0 °F 13% 29.66 in 10.0 mi WSW 11.5 mph 18.4 mph N/A   Clear
4:35 PM 89.6 °F - 33.8 °F 14% 29.65 in 10.0 mi WSW 13.8 mph - N/A   Clear
4:55 PM 89.6 °F - 32.0 °F 13% 29.65 in 10.0 mi West 16.1 mph - N/A   Clear
5:15 PM 89.6 °F - 32.0 °F 13% 29.64 in 10.0 mi WSW 10.4 mph - N/A   Clear
5:35 PM 89.6 °F - 33.8 °F 14% 29.63 in 10.0 mi WSW 9.2 mph - N/A   Clear
5:55 PM 89.6 °F - 32.0 °F 13% 29.62 in 10.0 mi West 8.1 mph - N/A   Clear
6:15 PM 89.6 °F - 32.0 °F 13% 29.62 in 10.0 mi West 6.9 mph - N/A   Clear
6:35 PM 89.6 °F - 30.2 °F 12% 29.61 in 10.0 mi WSW 8.1 mph - N/A   Clear
6:55 PM 89.6 °F - 33.8 °F 14% 29.60 in 10.0 mi SSW 6.9 mph - N/A   Clear
7:15 PM 89.6 °F - 37.4 °F 16% 29.60 in 10.0 mi South 4.6 mph - N/A   Clear
7:35 PM 87.8 °F - 42.8 °F 21% 29.60 in 10.0 mi South 4.6 mph - N/A   Clear
7:55 PM 82.4 °F 82.9 °F 60.8 °F 48% 29.62 in 10.0 mi ESE 18.4 mph 26.5 mph N/A   Clear
8:15 PM 78.8 °F - 62.6 °F 57% 29.62 in 10.0 mi SE 17.3 mph 20.7 mph N/A   Clear
8:35 PM 77.0 °F - 62.6 °F 61% 29.62 in 10.0 mi SE 12.7 mph 17.3 mph N/A   Clear
8:55 PM 75.2 °F - 64.4 °F 69% 29.62 in 10.0 mi SE 15.0 mph 21.9 mph N/A   Clear
9:15 PM 73.4 °F - 64.4 °F 73% 29.62 in 10.0 mi SE 15.0 mph - N/A   Clear
9:35 PM 73.4 °F - 64.4 °F 73% 29.63 in 10.0 mi SSE 12.7 mph 20.7 mph N/A   Clear
9:55 PM 71.6 °F - 64.4 °F 78% 29.63 in 10.0 mi SSE 17.3 mph 23.0 mph N/A   Clear
10:15 PM 71.6 °F - 64.4 °F 78% 29.63 in 10.0 mi SSE 19.6 mph 25.3 mph N/A   Clear
10:35 PM 71.6 °F - 62.6 °F 73% 29.64 in 10.0 mi SSE 18.4 mph 24.2 mph N/A   Clear
10:55 PM 71.6 °F - 64.4 °F 78% 29.64 in 10.0 mi SSE 19.6 mph 25.3 mph N/A   Clear
11:15 PM 71.6 °F - 64.4 °F 78% 29.64 in 10.0 mi SSE 17.3 mph 26.5 mph N/A   Clear
11:35 PM 71.6 °F - 64.4 °F 78% 29.64 in 10.0 mi SSE 19.6 mph 26.5 mph N/A   Clear
11:55 PM 71.6 °F - 64.4 °F 78% 29.64 in 10.0 mi SSE 18.4 mph 27.6 mph N/A   Clear